User: anonymous
Location: Unspecified
(0.0000°N, 0.0000°E)
Time: 07:04:16
(UTC+00:00)
Language:

OPTUS D1 - Orbit

View from above orbital plane
View from above orbital plane
View from above satellite
View from above satellite

Ground track
Ground track

The orbit data is extracted from the following two-line orbital elements,

1 29495U 06043B   14108.23875483 -.00000119  00000-0  10000-3 0  4470
2 29495 000.0280 017.5278 0003128 014.3180 060.3826 01.00272666 27590
Epoch (UTC): 18 April 2014 05:43:48
Eccentricity: 0.0003128
inclination: 0.0280°
perigee height: 35773 km
apogee height: 35799 km
right ascension of ascending node: 17.5278°
argument of perigee: 14.3180°
revolutions per day: 1.00272666
mean anomaly at epoch: 60.3826°
orbit number at epoch: 2759

The dashed part of the orbit path shows where the satellite is in the earth's shadow,  

DLR